Location: Lima
(44.6384°N, 112.5920°W)
Time: 23:06:04
(UTC+00:00)

RS-44 - Visible Passes

Search period start: 18 April 2024 00:00
Search period end: 28 April 2024 00:00
Orbit: 1175 x 1510 km, 82.5° (Epoch: 18 April)

Date Brightness Start Highest point End Pass type
(mag) Time Alt. Az. Time Alt. Az. Time Alt. Az.
18 Apr ? 03:37:00 10° S 03:45:55 85° E 03:54:31 10° N visible
18 Apr ? 05:33:37 10° WSW 05:40:23 24° WNW 05:47:00 10° NNW visible
19 Apr ? 04:00:56 10° SSW 04:09:46 68° WNW 04:18:17 10° N visible
19 Apr ? 06:00:03 10° W 06:04:56 16° WNW 06:09:44 10° NNW visible
20 Apr ? 04:25:22 10° SW 04:33:47 46° WNW 04:41:54 10° N visible
21 Apr ? 02:55:16 10° S 03:03:58 65° E 03:12:19 10° NNE visible
21 Apr ? 04:50:21 10° SW 04:57:57 32° WNW 05:05:18 10° N visible
22 Apr ? 03:18:50 10° S 03:27:43 88° W 03:36:12 10° N visible
22 Apr ? 05:16:04 10° WSW 05:22:20 21° WNW 05:28:25 10° NNW visible
23 Apr ? 03:42:53 10° SSW 03:51:36 61° WNW 03:59:55 10° N visible
23 Apr ? 05:42:55 10° W 05:46:55 14° NW 05:50:50 10° NNW visible
23 Apr ? 11:44:46 10° NE 11:46:18 11° NE 11:47:49 10° ENE visible
24 Apr ? 04:07:27 10° SW 04:15:38 42° WNW 04:23:28 10° N visible
25 Apr ? 04:32:38 10° WSW 04:39:51 28° WNW 04:46:47 10° N visible
26 Apr ? 03:00:41 10° SSW 03:09:30 80° W 03:17:51 10° N visible
26 Apr ? 04:58:36 10° WSW 05:04:16 19° WNW 05:09:45 10° NNW visible
27 Apr ? 03:24:53 10° SSW 03:33:24 55° WNW 03:41:30 10° N visible
27 Apr ? 05:26:08 10° WNW 05:28:54 12° NW 05:31:38 10° NNW visible
27 Apr ? 11:25:35 10° NNE 11:28:11 12° NE 11:30:44 10° ENE visible
